Regional Weather Roundup
Issued by NWS Wakefield, VA

Home | Current Version | Previous Version | Text Only | Print | Product List | Glossary Off
Versions: 1 2 3 4 5 6 7 8 9 10 11 12 13 14 15 16 17 18 19 20 21 22 23 24 25 26 27 28 29 30 31 32 33 34 35 36 37 38 39 40 41 42 43 44 45 46 47 48 49 50

000
ASUS41 KAKQ 160115
RWRAKQ

REGIONAL WEATHER ROUNDUP
NATIONAL WEATHER SERVICE WAKEFIELD VA
800 PM EST SUN JAN 15 2017

Note: "fair" indicates few or no clouds below 12,000 feet with no
significant weather and/or obstructions to visibility. * = Denotes
station may not report precipitation (e.g., rain,snow,etc.),
thunder or fog.

VAZ042-051-052>054-056-160200-
NORTHERN VIRGINIA

CITY           SKY/WX    TMP DP  RH WIND       PRES   REMARKS
WASH NATIONAL  CLOUDY    42  25  50 E5        30.41R
DULLES         CLOUDY    35  26  69 CALM      30.39S
FORT BELVOIR   CLOUDY    39  22  51 CALM      30.40S
QUANTICO       CLOUDY    42  30  62 CALM      30.42S
FREDERICKSBRG* PTCLDY    42  32  67 CALM      30.39S
STAFFORD*      MOCLDY    39  33  77 CALM      30.44R
WARRENTON      CLOUDY    42  20  41 CALM      30.39R
CULPEPER*      CLOUDY    42  26  52 CALM      30.40S
MANASSAS*      CLOUDY   N/A N/A N/A NE10      30.41R
LEESBURG*      CLOUDY    36  28  75 MISG      30.41R
WINCHESTER     CLOUDY    34  27  75 CALM      30.37F
FRONT ROYAL*   NOT AVBL
LURAY*         CLOUDY    39  30  70 NE6       30.35S
$$

VAZ048-049-060>072-079>083-160200-
CENTRAL AND SOUTH CENTRAL VIRGINIA

CITY           SKY/WX    TMP DP  RH WIND       PRES   REMARKS
RICHMOND       CLOUDY    44  27  51 E3        30.39R
CHESTERFIELD*  CLOUDY    46  18  31 NE5       30.41R
PETERSBURG*    CLOUDY    45  30  57 CALM      30.40S
HANOVER        CLOUDY    44  31  60 NE3       30.40S
TAPPAHANNOCK*  CLOUDY    40  19  42 CALM      30.40F
QUINTON*       CLOUDY    43  26  50 E3        30.39R
CHARLOTTSVILLE CLOUDY    42  39  89 CALM      30.37S
GORDONSVILLE*  CLOUDY    42  39  89 CALM      30.37F
ORANGE*          N/A     43  41  93 CALM      30.39F
LOUISA*        CLOUDY    45  43  93 CALM      30.37S
BUMPASS*       CLOUDY    42  39  91 CALM      30.39R
FARMVILLE*     CLOUDY    45  38  76 CALM      30.39R
CREWE*         CLOUDY    44  38  79 CALM      30.39R
FORT PICKETT*  CLOUDY    44  31  61 CALM      30.39R
CHASE CITY*    CLOUDY    46  33  60 CALM      30.38S
CLARKSVILLE*   CLOUDY    46  36  66 E5        30.37R
SOUTH HILL*    CLOUDY    45  31  59 CALM      30.44R
LAWRENCEVILLE* CLOUDY    45  29  53 CALM      30.39R
EMPORIA*       CLOUDY    43  30  61 CALM      30.41R
$$

VAZ088>098-160200-
SOUTHEAST VIRGINIA

CITY           SKY/WX    TMP DP  RH WIND       PRES   REMARKS
NORFOLK        CLOUDY    40  33  76 NE8       30.39S
VIRGINIA BEACH CLOUDY    38  32  79 N3        30.39S
NORFOLK NAVAL  CLOUDY    40  32  73 NE6       30.41R
WEST POINT*    CLOUDY    41  30  66 E6        30.42S
SALUDA*        FAIR      37  34  89 CALM      30.41S
NEWPORT NEWS   CLOUDY    40  25  55 CALM      30.40R
LANGLEY AFB    CLOUDY    39  31  71 N3        30.39R
FORT EUSTIS    CLOUDY    41  24  50 NE6       30.38R
WILLIAMSBURG*  CLOUDY    43  34  70 CALM      30.41R
HR EXEC AP*    FAIR      37  30  75 CALM      30.38F
FRANKLIN*      MOCLDY    39  25  57 CALM      30.41R
US460-WAKEFLD  CLOUDY    42  30  62 CALM      30.40R
$$

VAZ020-022-025-037-045-160200-
WEST CENTRAL AND SOUTHWEST VIRGINIA

CITY           SKY/WX    TMP DP  RH WIND       PRES   REMARKS
STAUNTON*      CLOUDY    40  38  90 SW3       30.36R
WAYNESBORO*    CLOUDY    39  38  94 SE5       30.34S
HOT SPRINGS VA DRIZZLE   43  43 100 CALM      30.27S
LYNCHBURG      CLOUDY    42  41  96 NE5       30.38R
DANVILLE       CLOUDY    49  40  71 E6        30.36R
SOUTH BOSTON*  CLOUDY    48  36  63 NE3       30.37S
MARTINSVILLE   CLOUDY    50  41  71 E6        30.36S
ROANOKE        CLOUDY    45  44  97 SE7       30.36R
BLACKSBURG     DRIZZLE   45  45  99 E7        30.34R
DUBLIN*        RAIN      48  47  97 NE6       30.31S
MARION*        DRZL/FOG  54  53  96 SW3       30.31S VSB 1
HILLSVILLE*    CLOUDY    48  48 100 CALM      30.29R
RICHLANDS*     FOG      N/A N/A N/A W6        30.28F VSB 1/4
WISE*          LGT RAIN  50  50 100 CALM      30.29S
ABINGDON*      CLOUDY    56  56 100 W5        30.29R
$$

MDZ021>025-VAZ099-100-160200-
SOUTHERN MARYLAND AND THE DELMARVA PENINSULA

CITY           SKY/WX    TMP DP  RH WIND       PRES   REMARKS
PATUXENT RIVER CLOUDY    38  30  73 CALM      30.40S
BAY BRIDGE APT MOCLDY    37  28  70 CALM      30.41R
LEONARDTOWN    CLOUDY    36  28  75 CALM      30.42S
DOVER          CLOUDY    35  29  79 CALM      30.40R
GEORGETOWN     CLOUDY    39  29  67 N3        30.41R
EASTON         CLEAR     39  27  60 CALM      30.44R
CAMBRIDGE      CLOUDY    36  30  80 CALM      30.40S
SALISBURY      CLOUDY    38  31  76 N5        30.40R
OCEAN CITY     CLOUDY    37  35  92 CALM      30.40S
WALLOPS ISLAND CLOUDY    40  32  73 CALM      30.41R
ACCOMACK*      CLOUDY    38  34  84 CALM      30.40S
$$

NCZ012>017-030>032-160200-
NORTH CENTRAL AND EASTERN NORTH CAROLINA

CITY           SKY/WX    TMP DP  RH WIND       PRES   REMARKS
ROANOKE RAPIDS CLOUDY    46  32  57 E3        30.38R
RALEIGH        CLOUDY    50  38  63 E7        30.36R
ELIZABETH CITY CLOUDY    39  36  89 NE7       30.40R
AHOSKIE*         N/A     44  32  61 E5        30.39S
EDENTON*       CLOUDY    43  40  89 CALM      30.41R
CURRITUCK*     CLOUDY    39  37  90 CALM      30.40S
KILL DEVIL HLS NOT AVBL
MANTEO         CLOUDY    40  38  91 NE6       30.39S
CAPE HATTERAS  PTCLDY    45  40  82 VRB7      30.37R HAZE
TARBORO*       NOT AVBL
GOLDSBORO      CLOUDY    51  47  86 E7        30.34R
WASHINGTON     CLOUDY    44  39  82 NE5       30.39R
GREENVILLE     CLOUDY    46  37  71 E5        30.38R
NEW BERN       CLEAR     46  40  79 NE6       30.39R
WILMINGTON     CLEAR     51  47  86 E9        30.35R
$$

VAZ048-160200-
ELSEWHERE

CITY           SKY/WX    TMP DP  RH WIND       PRES   REMARKS
HARRISBURG PA  MOCLDY    30  22  72 CALM      30.41R
BALTIMORE      MOCLDY    36  25  64 CALM      30.40R
ANNAPOLIS      PTCLDY    39  29  67 CALM      30.40R
ANDREWS AFB    CLOUDY    37  26  65 SE3       30.39R
PHILADELPHIA   CLOUDY    35  20  54 N7        30.41S
HENDERSON NC   CLOUDY    45  31  57 E6        30.37R
GREENSBORO     LGT RAIN  51  48  89 E5        30.32R
ROCKY MOUNT    CLOUDY    48  36  63 NE5       30.37R
$$

VAZ100-160200-
MARINE

STATION/POSITION TIME  TEMP    WIND        PRES    WAVE   SWELL
                       AIR SEA DIR/SP/G            HT/PER HT/PER
                 (UTC) (F)     (DEG/KT/KT) (MB)    (FT/S) (FT/S)
CAPE MAY NJ      0030   36 40   CALM  /  2 1029.1S
LEWES DE         0030   40 42   10/  7/  8 1029.3R
OCEAN-CITY-INLET 0030   40 43   30/  3/  4 1029.7S
WACHAPREAGUE VA  0036   39 45  280/  2/  3 1029.6R
THOMAS POINT MD  0000   38 39  150/  3/  3   N/A
GOOSES REEF MD   0050   39     350/  2/  2 1030.2R
COVE POINT MD    0030   38     330/  2/  3 1030.3R
SOLOMONS ISLAND  0030   39 41  270/  2/  2   N/A
BISHOPS HEAD MD  0030   39 41  320/  3/  4 1029.8R
PINEY POINT MD   0030             CALM       N/A
POTOMAC MD       0050   40     320/  4/  4 1028.9R
CAMBRIDGE MD     0030   39 39   70/  2/  2 1028.9R
LEWISETTA VA     0030   40 42  320/  2/  2 1029.5R
RAPPAHANNOCK LGT 0030          330/  3/  3 1030.1R
STINGRAY PT      0050   39     300/  4/  6 1030.0R
YORK RVR RNG VA  0030   41      20/  7/  8 1028.9R
YORKTOWN VA      0030   40 42   50/  9/ 11 1029.0F
JAMESTOWN VA     0050   42      60/  2/  4   N/A
DOMINION TERM VA 0030   41      70/  4/  5 1029.2R
KIPTOPEKE VA     0030      43   10/  4/  7   N/A
CHES BAY BRIDGE  0030   40 42   30/ 12/ 13 1029.1F
CAPE HENRY VA    0030   40      10/  9/ 10   N/A
WILLOUBY STN VA  0030   40      50/  8/  9 1030.0R
S CRANEY ISL VA  0030   40      70/  5/  7 1029.0R
CAPE HENRY BUOY  0042      47                N/A     3/ 6
OFFSHORE WE BUOY 0051      49                N/A     4/ 6   2/11
64NM E OF VA BCH 2350   47 57   10/ 10/ 12 1027.8    4/ 8   3/ 8
DUCK PIER NC     0030   42 44   20/  7/  8 1028.4F
44100 DUCK FRF   0035      46                N/A     4/ 5   2/11
44056 DUCK FRF   0030      46                N/A     4/ 5   2/11
OREGON INLET NC  0030   42 50  360/  7/ 10 1028.6F
HATTERAS NC      0030   44 56   10/ 16/ 19 1027.6S
DIAMOND SHLS NC  2350   52 74   20/ 16/ 19 1027.3    5/ 5   2/11
CAPE LOOKOUT NC  0000   48      10/ 12/ 15 1027.5R
$$



USA.gov is the U.S. government's official web portal to all federal, state and local government web resources and services.